GW4481 Weather Reports


Display with metric or nautical units.
time (UTC)temp
F
wind
direction
speed
MPH
gust
MPH
rain 1hr
in
rain 24hr
in
rain mn
in
humidity
%
barometer
mb
20260507103127 56 0 0.0 2.0 0.00 0.00 0.00 90 1016.2
20260507101555 57 0 0.0 2.0 0.00 0.00 0.00 89 1016.2
20260507100110 57 0 0.0 2.0 0.00 0.00 0.00 89 1016.2
20260507094553 57 0 0.0 2.0 0.00 0.00 0.00 89 1016.4
20260507093052 57 58 0.0 2.0 0.00 0.00 0.00 89 1016.5
20260507091554 57 0 0.0 2.0 0.00 0.00 0.00 88 1016.6
20260507084604 58 18 0.0 1.0 0.00 0.00 0.00 88 1016.8
20260507083057 58 9 1.0 3.0 0.00 0.00 0.00 88 1017.1
20260507081559 59 9 0.0 2.0 0.00 0.00 0.00 89 1017.3
20260507080056 58 0 0.0 1.0 0.00 0.00 0.00 90 1017.4
20260507074600 58 210 0.0 2.0 0.00 0.00 0.00 90 1017.4
20260507073057 58 0 0.0 1.0 0.00 0.00 0.00 89 1017.4
20260507071605 59 0 0.0 0.0 0.00 0.00 0.00 89 1017.3
20260507070108 59 0 0.0 2.0 0.00 0.00 0.00 89 1017.4
20260507064559 59 0 0.0 2.0 0.00 0.00 0.00 88 1017.6
20260507063059 59 274 1.0 3.0 0.00 0.00 0.00 87 1017.6
20260507061558 59 260 1.0 3.0 0.00 0.00 0.00 86 1017.5
20260507060058 59 269 1.0 3.0 0.00 0.00 0.00 85 1017.6
20260507054612 59 262 1.0 3.0 0.00 0.00 0.00 84 1017.6
20260507053105 60 281 1.0 4.0 0.00 0.00 0.00 85 1017.7
20260507051559 60 277 2.0 3.0 0.00 0.00 0.00 85 1017.7
20260507050058 60 277 1.0 3.0 0.00 0.00 0.00 85 1017.6
20260507044559 60 267 2.0 3.0 0.00 0.00 0.00 84 1017.6
20260507043054 60 278 2.0 4.0 0.00 0.00 0.00 83 1017.5
20260507041604 60 270 2.0 6.0 0.00 0.00 0.00 82 1017.6
20260507040056 60 360 2.0 6.0 0.00 0.00 0.00 82 1017.3
20260507034600 61 360 3.0 8.0 0.00 0.00 0.00 82 1017.2
20260507033055 61 360 3.0 7.0 0.00 0.00 0.00 83 1017.1
20260507031555 61 265 3.0 7.0 0.00 0.00 0.00 83 1016.9
20260507030101 62 273 3.0 8.0 0.00 0.00 0.00 83 1016.8
20260507024557 62 360 3.0 8.0 0.00 0.00 0.00 81 1016.8
20260507023055 63 360 4.0 9.0 0.00 0.00 0.00 79 1016.7
20260507021622 64 279 8.0 13.0 0.00 0.00 0.00 76 1016.6
20260507020111 65 279 6.0 11.0 0.00 0.00 0.00 74 1016.5
20260507014620 66 271 6.0 12.0 0.00 0.00 0.00 72 1016.5
20260507013056 66 236 6.0 13.0 0.00 0.00 0.00 70 1016.4
20260507011600 66 228 9.0 13.0 0.00 0.00 0.00 69 1016.5
20260507010055 67 265 8.0 13.0 0.00 0.00 0.00 68 1016.3
20260507004554 67 238 9.0 16.0 0.00 0.00 0.00 69 1016.3
20260507003055 67 360 9.0 15.0 0.00 0.00 0.00 67 1016.3
20260507001605 68 288 9.0 16.0 0.00 0.00 0.00 68 1016.2
20260507000121 67 218 10.0 16.0 0.00 0.00 0.00 68 1016.1
20260506234613 68 296 9.0 15.0 0.00 0.00 0.00 67 1016.0
20260506233055 68 270 11.0 20.0 0.00 0.00 0.00 67 1016.0
20260506231555 68 236 11.0 18.0 0.00 0.00 0.00 66 1016.0
20260506224555 68 258 9.0 17.0 0.00 0.00 0.00 66 1016.2
20260506223103 68 240 12.0 19.0 0.00 0.00 0.00 68 1016.3
20260506221602 68 273 10.0 17.0 0.00 0.00 0.00 67 1016.4
20260506220056 68 250 10.0 18.0 0.00 0.00 0.00 67 1016.5
20260506214559 68 264 10.0 18.0 0.00 0.00 0.00 68 1016.7
20260506213100 67 234 9.0 19.0 0.00 0.00 0.00 68 1016.8
20260506211558 67 237 10.0 18.0 0.00 0.00 0.00 69 1017.0
20260506210054 67 225 12.0 18.0 0.00 0.00 0.00 68 1017.0
20260506204556 67 262 11.0 17.0 0.00 0.00 0.00 67 1017.1
20260506203055 67 239 11.0 18.0 0.00 0.00 0.00 67 1017.2
20260506201555 67 232 12.0 21.0 0.00 0.00 0.00 67 1017.2
20260506200054 68 279 11.0 17.0 0.00 0.00 0.00 66 1017.5
20260506194556 68 273 9.0 18.0 0.00 0.00 0.00 66 1017.4
20260506193100 68 245 8.0 16.0 0.00 0.00 0.00 66 1017.5
20260506191605 68 242 9.0 17.0 0.00 0.00 0.00 65 1017.6
20260506190056 67 247 8.0 14.0 0.00 0.00 0.00 68 1017.6
20260506184604 67 245 7.0 15.0 0.00 0.00 0.00 67 1017.7
20260506183104 67 269 7.0 14.0 0.00 0.00 0.00 65 1017.9
20260506181607 67 259 6.0 14.0 0.00 0.00 0.00 66 1017.9
20260506180057 67 226 6.0 11.0 0.00 0.00 0.00 64 1018.0
20260506174555 65 263 6.0 12.0 0.00 0.00 0.00 64 1018.1
20260506173122 65 292 2.0 10.0 0.00 0.00 0.00 65 1018.1
20260506171558 64 340 4.0 11.0 0.00 0.00 0.00 66 1018.3
20260506170106 64 350 3.0 9.0 0.00 0.00 0.00 67 1018.2
20260506164556 63 323 4.0 9.0 0.00 0.00 0.00 69 1018.2
20260506163057 62 270 3.0 9.0 0.00 0.00 0.00 70 1018.2
20260506161555 61 277 2.0 9.0 0.00 0.00 0.00 72 1018.2
20260506160057 62 334 3.0 6.0 0.00 0.00 0.00 70 1018.3
20260506154609 61 0 2.0 7.0 0.00 0.00 0.00 72 1018.2
20260506153054 61 337 2.0 5.0 0.00 0.00 0.00 73 1018.3
20260506151557 60 337 2.0 4.0 0.00 0.00 0.00 75 1018.4
20260506150055 60 0 2.0 5.0 0.00 0.00 0.00 75 1018.5
20260506144603 60 78 1.0 3.0 0.00 0.01 0.00 74 1018.3
20260506143055 60 83 1.0 3.0 0.00 0.01 0.00 74 1018.4
20260506141600 58 90 1.0 3.0 0.00 0.01 0.00 77 1018.3
20260506140057 56 62 1.0 3.0 0.00 0.01 0.00 81 1018.4
20260506134556 55 32 0.0 2.0 0.00 0.12 0.00 83 1018.2
20260506133104 54 0 0.0 2.0 0.00 0.12 0.00 83 1018.1
20260506131609 54 0 0.0 3.0 0.00 0.12 0.00 82 1017.9
20260506130119 54 69 1.0 3.0 0.00 0.12 0.00 82 1017.7
20260506124554 54 63 1.0 3.0 0.00 0.13 0.00 82 1017.6
20260506123058 54 88 2.0 4.0 0.00 0.13 0.00 82 1017.5
20260506121553 54 78 2.0 4.0 0.00 0.13 0.00 82 1017.5
20260506120053 55 109 1.0 3.0 0.00 0.13 0.00 82 1017.4
20260506114603 55 101 0.0 3.0 0.00 0.16 0.00 82 1017.5
20260506113054 55 134 0.0 3.0 0.00 0.16 0.00 82 1017.5
20260506111557 55 119 1.0 4.0 0.00 0.16 0.00 81 1017.4
20260506110055 55 89 1.0 3.0 0.00 0.16 0.00 82 1017.5
20260506104614 55 92 1.0 3.0 0.00 0.16 0.00 82 1017.4